Time,TemperatureF,DewpointF,PressureIn,WindDirection,WindDirectionDegrees,WindSpeedMPH,WindSpeedGustMPH,Humidity,HourlyPrecipIn,Conditions,Clouds,dailyrainin,SoftwareType,DateUTC
2013-05-25 00:01:00,46.0,37.2,30.16,SW,216,0.0,0.0,71,0.00,,,0.00,VWS V14.00,2013-05-25 04:01:00,
2013-05-25 00:03:00,46.0,37.2,30.19,SW,218,0.0,0.0,71,0.00,,,0.00,VWS V14.00,2013-05-25 04:03:00,
2013-05-25 00:04:00,46.0,37.2,30.19,SW,216,0.0,0.0,71,0.00,,,0.00,VWS V14.00,2013-05-25 04:04:00,
2013-05-25 00:07:00,45.9,37.0,30.19,SW,216,0.0,0.0,71,0.00,,,0.00,VWS V14.00,2013-05-25 04:07:00,
2013-05-25 00:09:00,45.9,37.0,30.19,SW,218,0.0,0.0,71,0.00,,,0.00,VWS V14.00,2013-05-25 04:09:00,
2013-05-25 00:14:00,45.7,37.2,30.19,SW,217,2.2,2.2,72,0.00,,,0.00,VWS V14.00,2013-05-25 04:14:00,
2013-05-25 00:19:00,45.5,37.4,30.19,SW,218,0.0,0.0,73,0.00,,,0.00,VWS V14.00,2013-05-25 04:19:00,
2013-05-25 00:25:00,45.5,37.4,30.19,SW,216,0.0,0.0,73,0.00,,,0.00,VWS V14.00,2013-05-25 04:25:00,
2013-05-25 00:30:00,45.3,37.2,30.19,SW,216,0.0,2.2,73,0.00,,,0.00,VWS V14.00,2013-05-25 04:30:00,
2013-05-25 00:36:00,45.1,37.4,30.19,SW,216,0.0,0.0,74,0.00,,,0.00,VWS V14.00,2013-05-25 04:36:00,
2013-05-25 00:42:00,45.0,37.2,30.19,SW,216,0.0,0.0,74,0.00,,,0.00,VWS V14.00,2013-05-25 04:42:00,
2013-05-25 00:47:00,44.8,37.3,30.19,SW,216,0.0,0.0,75,0.00,,,0.00,VWS V14.00,2013-05-25 04:47:00,
2013-05-25 00:53:00,44.8,37.3,30.19,SW,218,0.0,0.0,75,0.00,,,0.00,VWS V14.00,2013-05-25 04:53:00,
2013-05-25 00:58:00,44.6,37.5,30.19,SW,217,0.0,0.0,76,0.00,,,0.00,VWS V14.00,2013-05-25 04:58:00,
2013-05-25 01:04:00,44.6,37.5,30.19,SW,216,0.0,0.0,76,0.00,,,0.00,VWS V14.00,2013-05-25 05:04:00,
2013-05-25 01:10:00,44.4,37.7,30.19,SW,216,0.0,0.0,77,0.00,,,0.00,VWS V14.00,2013-05-25 05:10:00,
2013-05-25 01:16:00,44.2,37.5,30.19,SW,218,0.0,0.0,77,0.00,,,0.00,VWS V14.00,2013-05-25 05:16:00,
2013-05-25 01:21:00,44.1,37.3,30.19,SW,216,0.0,0.0,77,0.00,,,0.00,VWS V14.00,2013-05-25 05:21:00,
2013-05-25 01:26:00,44.1,37.3,30.19,SW,216,0.0,0.0,77,0.00,,,0.00,VWS V14.00,2013-05-25 05:26:00,
2013-05-25 01:32:00,43.9,37.2,30.19,SW,218,0.0,0.0,77,0.00,,,0.00,VWS V14.00,2013-05-25 05:32:00,
2013-05-25 01:38:00,43.7,37.3,30.19,SW,218,0.0,0.0,78,0.00,,,0.00,VWS V14.00,2013-05-25 05:38:00,
2013-05-25 01:44:00,43.5,37.1,30.19,SW,216,0.0,0.0,78,0.00,,,0.00,VWS V14.00,2013-05-25 05:44:00,
2013-05-25 01:49:00,43.3,37.3,30.19,SW,218,0.0,0.0,79,0.00,,,0.00,VWS V14.00,2013-05-25 05:49:00,
2013-05-25 01:54:00,43.2,37.1,30.19,SW,217,0.0,0.0,79,0.00,,,0.00,VWS V14.00,2013-05-25 05:54:00,
2013-05-25 01:59:00,43.0,37.2,30.19,SW,216,0.0,0.0,80,0.00,,,0.00,VWS V14.00,2013-05-25 05:59:00,
2013-05-25 02:05:00,42.8,37.1,30.19,SW,216,0.0,0.0,80,0.00,,,0.00,VWS V14.00,2013-05-25 06:05:00,
2013-05-25 02:10:00,42.8,37.4,30.19,SW,216,0.0,0.0,81,0.00,,,0.00,VWS V14.00,2013-05-25 06:10:00,
2013-05-25 02:16:00,42.6,37.2,30.19,SW,217,0.0,0.0,81,0.00,,,0.00,VWS V14.00,2013-05-25 06:16:00,
2013-05-25 02:21:00,42.4,37.3,30.19,SW,216,0.0,0.0,82,0.00,,,0.00,VWS V14.00,2013-05-25 06:21:00,
2013-05-25 02:26:00,42.4,37.3,30.19,SW,218,0.0,0.0,82,0.00,,,0.00,VWS V14.00,2013-05-25 06:26:00,
2013-05-25 02:31:00,42.3,37.2,30.19,SW,216,0.0,0.0,82,0.00,,,0.00,VWS V14.00,2013-05-25 06:31:00,
2013-05-25 02:37:00,42.1,37.3,30.19,SW,218,0.0,0.0,83,0.00,,,0.00,VWS V14.00,2013-05-25 06:37:00,
2013-05-25 02:42:00,42.1,37.3,30.19,SW,216,0.0,0.0,83,0.00,,,0.00,VWS V14.00,2013-05-25 06:42:00,
2013-05-25 02:48:00,41.9,37.1,30.16,SW,217,0.0,0.0,83,0.00,,,0.00,VWS V14.00,2013-05-25 06:48:00,
2013-05-25 02:54:00,41.7,37.0,30.16,SW,216,0.0,0.0,83,0.00,,,0.00,VWS V14.00,2013-05-25 06:54:00,
2013-05-25 03:00:00,41.7,37.0,30.16,SW,218,0.0,0.0,83,0.00,,,0.00,VWS V14.00,2013-05-25 07:00:00,
2013-05-25 03:05:00,41.5,37.1,30.16,SW,217,0.0,0.0,84,0.00,,,0.00,VWS V14.00,2013-05-25 07:05:00,
2013-05-25 03:10:00,41.4,36.9,30.16,SW,218,0.0,0.0,84,0.00,,,0.00,VWS V14.00,2013-05-25 07:10:00,
2013-05-25 03:16:00,41.2,36.7,30.16,SW,218,0.0,0.0,84,0.00,,,0.00,VWS V14.00,2013-05-25 07:16:00,
2013-05-25 03:21:00,41.2,36.7,30.16,SW,217,0.0,0.0,84,0.00,,,0.00,VWS V14.00,2013-05-25 07:21:00,
2013-05-25 03:27:00,41.0,36.8,30.16,SW,216,0.0,0.0,85,0.00,,,0.00,VWS V14.00,2013-05-25 07:27:00,
2013-05-25 03:33:00,41.0,36.8,30.16,SW,217,0.0,0.0,85,0.00,,,0.00,VWS V14.00,2013-05-25 07:33:00,
2013-05-25 03:38:00,40.8,36.7,30.16,SW,217,0.0,0.0,85,0.00,,,0.00,VWS V14.00,2013-05-25 07:38:00,
2013-05-25 03:44:00,40.6,36.8,30.16,SW,216,0.0,0.0,86,0.00,,,0.00,VWS V14.00,2013-05-25 07:44:00,
2013-05-25 03:50:00,40.6,36.8,30.16,SW,218,0.0,0.0,86,0.00,,,0.00,VWS V14.00,2013-05-25 07:50:00,
2013-05-25 03:55:00,40.6,36.8,30.16,SW,216,0.0,0.0,86,0.00,,,0.00,VWS V14.00,2013-05-25 07:55:00,
2013-05-25 04:01:00,40.5,36.6,30.16,SW,216,0.0,0.0,86,0.00,,,0.00,VWS V14.00,2013-05-25 08:01:00,
2013-05-25 04:06:00,40.3,36.4,30.16,SW,218,0.0,0.0,86,0.00,,,0.00,VWS V14.00,2013-05-25 08:06:00,
2013-05-25 04:12:00,40.3,36.4,30.16,SW,216,0.0,0.0,86,0.00,,,0.00,VWS V14.00,2013-05-25 08:12:00,
2013-05-25 04:17:00,40.1,36.3,30.16,SW,217,0.0,0.0,86,0.00,,,0.00,VWS V14.00,2013-05-25 08:17:00,
2013-05-25 04:22:00,40.1,36.5,30.16,SW,217,0.0,0.0,87,0.00,,,0.00,VWS V14.00,2013-05-25 08:22:00,
2013-05-25 04:27:00,40.1,36.5,30.16,SW,216,0.0,0.0,87,0.00,,,0.00,VWS V14.00,2013-05-25 08:27:00,
2013-05-25 04:32:00,39.9,36.4,30.13,SW,218,0.0,0.0,87,0.00,,,0.00,VWS V14.00,2013-05-25 08:32:00,
2013-05-25 04:37:00,39.9,36.4,30.13,SW,218,0.0,0.0,87,0.00,,,0.00,VWS V14.00,2013-05-25 08:37:00,
2013-05-25 04:43:00,39.7,36.2,30.13,SW,216,0.0,0.0,87,0.00,,,0.00,VWS V14.00,2013-05-25 08:43:00,
2013-05-25 04:48:00,39.7,36.2,30.16,SW,216,0.0,0.0,87,0.00,,,0.00,VWS V14.00,2013-05-25 08:48:00,
2013-05-25 04:54:00,39.7,36.2,30.16,SW,216,0.0,0.0,87,0.00,,,0.00,VWS V14.00,2013-05-25 08:54:00,
2013-05-25 05:00:00,39.6,36.3,30.16,SW,216,0.0,0.0,88,0.00,,,0.00,VWS V14.00,2013-05-25 09:00:00,
2013-05-25 05:05:00,39.6,36.3,30.16,SW,218,0.0,0.0,88,0.00,,,0.00,VWS V14.00,2013-05-25 09:05:00,
2013-05-25 05:10:00,39.4,36.1,30.16,SW,217,0.0,0.0,88,0.00,,,0.00,VWS V14.00,2013-05-25 09:10:00,
2013-05-25 05:15:00,39.4,36.1,30.16,SW,216,0.0,2.2,88,0.00,,,0.00,VWS V14.00,2013-05-25 09:15:00,
2013-05-25 05:20:00,39.4,36.1,30.16,SW,216,0.0,0.0,88,0.00,,,0.00,VWS V14.00,2013-05-25 09:20:00,
2013-05-25 05:26:00,39.4,36.1,30.16,SW,218,0.0,0.0,88,0.00,,,0.00,VWS V14.00,2013-05-25 09:26:00,
2013-05-25 05:31:00,39.4,36.4,30.16,SW,218,0.0,0.0,89,0.00,,,0.00,VWS V14.00,2013-05-25 09:31:00,
2013-05-25 05:36:00,39.4,36.4,30.16,SW,218,0.0,0.0,89,0.00,,,0.00,VWS V14.00,2013-05-25 09:36:00,
2013-05-25 05:41:00,39.2,36.2,30.16,SW,218,2.2,2.7,89,0.00,,,0.00,VWS V14.00,2013-05-25 09:41:00,
2013-05-25 05:47:00,39.4,36.4,30.16,SW,216,0.0,0.0,89,0.00,,,0.00,VWS V14.00,2013-05-25 09:47:00,
2013-05-25 05:52:00,39.4,36.7,30.16,SW,218,0.0,0.0,90,0.00,,,0.00,VWS V14.00,2013-05-25 09:52:00,
2013-05-25 05:58:00,39.2,36.5,30.16,SW,217,0.0,0.0,90,0.00,,,0.00,VWS V14.00,2013-05-25 09:58:00,
2013-05-25 06:03:00,39.2,36.5,30.16,SW,216,0.0,0.0,90,0.00,,,0.00,VWS V14.00,2013-05-25 10:03:00,
2013-05-25 06:08:00,39.2,36.5,30.16,SW,218,0.0,0.0,90,0.00,,,0.00,VWS V14.00,2013-05-25 10:08:00,
2013-05-25 06:14:00,39.2,36.8,30.16,ESE,115,2.7,4.0,91,0.00,,,0.00,VWS V14.00,2013-05-25 10:14:00,
2013-05-25 06:19:00,39.2,36.8,30.16,ESE,115,0.0,0.0,91,0.00,,,0.00,VWS V14.00,2013-05-25 10:19:00,
2013-05-25 06:25:00,39.2,36.8,30.16,ESE,115,0.0,0.0,91,0.00,,,0.00,VWS V14.00,2013-05-25 10:25:00,
2013-05-25 06:30:00,39.2,36.8,30.16,ESE,116,0.0,0.0,91,0.00,,,0.00,VWS V14.00,2013-05-25 10:30:00,
2013-05-25 06:36:00,39.4,37.2,30.16,ESE,115,0.0,0.0,92,0.00,,,0.00,VWS V14.00,2013-05-25 10:36:00,
2013-05-25 06:41:00,39.4,37.2,30.16,ESE,115,0.0,0.0,92,0.00,,,0.00,VWS V14.00,2013-05-25 10:41:00,
2013-05-25 06:47:00,39.7,37.6,30.19,ESE,115,0.0,0.0,92,0.00,,,0.00,VWS V14.00,2013-05-25 10:47:00,
2013-05-25 06:52:00,39.9,38.1,30.19,ESE,115,2.7,3.1,93,0.00,,,0.00,VWS V14.00,2013-05-25 10:52:00,
2013-05-25 06:57:00,40.1,38.2,30.19,ESE,105,2.2,2.7,93,0.00,,,0.00,VWS V14.00,2013-05-25 10:57:00,
2013-05-25 07:03:00,40.5,38.6,30.19,ESE,106,0.0,2.7,93,0.00,,,0.00,VWS V14.00,2013-05-25 11:03:00,
2013-05-25 07:08:00,40.6,39.0,30.19,ESE,105,2.2,2.7,94,0.00,,,0.00,VWS V14.00,2013-05-25 11:08:00,
2013-05-25 07:14:00,41.0,39.4,30.19,NNE,17,4.0,4.0,94,0.00,,,0.00,VWS V14.00,2013-05-25 11:14:00,
2013-05-25 07:19:00,41.2,39.6,30.19,NNE,16,3.1,3.6,94,0.00,,,0.00,VWS V14.00,2013-05-25 11:19:00,
2013-05-25 07:25:00,41.5,40.0,30.19,NNE,30,2.7,2.7,94,0.00,,,0.00,VWS V14.00,2013-05-25 11:25:00,
2013-05-25 07:30:00,41.7,40.4,30.19,NNE,18,2.2,3.1,95,0.00,,,0.00,VWS V14.00,2013-05-25 11:30:00,
2013-05-25 07:35:00,41.9,40.6,30.19,NNE,32,0.0,2.7,95,0.00,,,0.00,VWS V14.00,2013-05-25 11:35:00,
2013-05-25 07:41:00,42.3,40.9,30.19,NNE,22,2.2,2.7,95,0.00,,,0.00,VWS V14.00,2013-05-25 11:41:00,
2013-05-25 07:47:00,42.4,41.1,30.22,NNE,21,0.0,2.2,95,0.00,,,0.00,VWS V14.00,2013-05-25 11:47:00,
2013-05-25 07:52:00,43.0,41.7,30.22,NNE,17,3.1,3.1,95,0.00,,,0.00,VWS V14.00,2013-05-25 11:52:00,
2013-05-25 07:57:00,43.3,42.0,30.22,NNE,16,0.0,0.0,95,0.00,,,0.00,VWS V14.00,2013-05-25 11:57:00,
2013-05-25 08:02:00,43.5,42.2,30.22,NNE,33,0.0,0.0,95,0.00,,,0.00,VWS V14.00,2013-05-25 12:02:00,
2013-05-25 08:07:00,43.9,42.5,30.22,NE,34,0.0,0.0,95,0.00,,,0.00,VWS V14.00,2013-05-25 12:07:00,
2013-05-25 08:13:00,44.4,43.1,30.22,ENE,61,0.0,0.0,95,0.00,,,0.00,VWS V14.00,2013-05-25 12:13:00,
2013-05-25 08:18:00,44.8,43.2,30.22,SSW,193,0.0,0.0,94,0.00,,,0.00,VWS V14.00,2013-05-25 12:18:00,
2013-05-25 08:24:00,45.3,43.7,30.22,WSW,253,0.0,0.0,94,0.00,,,0.00,VWS V14.00,2013-05-25 12:24:00,
2013-05-25 08:29:00,45.5,43.9,30.22,NNE,30,0.0,0.0,94,0.00,,,0.00,VWS V14.00,2013-05-25 12:29:00,
2013-05-25 08:34:00,46.0,44.1,30.22,NE,51,0.0,0.0,93,0.00,,,0.00,VWS V14.00,2013-05-25 12:34:00,
2013-05-25 08:39:00,46.2,44.0,30.22,NE,49,3.6,3.6,92,0.00,,,0.00,VWS V14.00,2013-05-25 12:39:00,
2013-05-25 08:45:00,46.6,44.1,30.22,NE,44,3.6,3.6,91,0.00,,,0.00,VWS V14.00,2013-05-25 12:45:00,
2013-05-25 08:50:00,46.8,44.3,30.22,NNE,23,0.0,0.0,91,0.00,,,0.00,VWS V14.00,2013-05-25 12:50:00,
2013-05-25 08:56:00,47.3,44.2,30.22,NNE,31,0.0,3.1,89,0.00,,,0.00,VWS V14.00,2013-05-25 12:56:00,
2013-05-25 09:01:00,47.8,44.5,30.22,WSW,253,2.2,3.1,88,0.00,,,0.00,VWS V14.00,2013-05-25 13:01:00,
2013-05-25 09:07:00,48.2,43.9,30.22,North,350,2.2,2.2,85,0.00,,,0.00,VWS V14.00,2013-05-25 13:07:00,
2013-05-25 09:12:00,48.6,43.6,30.22,West,276,0.0,2.2,83,0.00,,,0.00,VWS V14.00,2013-05-25 13:12:00,
2013-05-25 09:18:00,49.1,43.5,30.22,South,180,3.1,3.1,81,0.00,,,0.00,VWS V14.00,2013-05-25 13:18:00,
2013-05-25 09:24:00,49.5,41.9,30.22,West,266,3.6,3.6,75,0.00,,,0.00,VWS V14.00,2013-05-25 13:24:00,
2013-05-25 09:30:00,49.8,41.9,30.22,NE,38,3.6,3.6,74,0.00,,,0.00,VWS V14.00,2013-05-25 13:30:00,
2013-05-25 09:35:00,50.2,41.5,30.22,NW,309,2.2,2.2,72,0.00,,,0.00,VWS V14.00,2013-05-25 13:35:00,
2013-05-25 09:41:00,50.5,41.5,30.22,SSW,199,0.0,3.1,71,0.00,,,0.00,VWS V14.00,2013-05-25 13:41:00,
2013-05-25 09:47:00,50.9,41.1,30.22,North,357,2.7,3.1,69,0.00,,,0.00,VWS V14.00,2013-05-25 13:47:00,
2013-05-25 09:52:00,51.3,41.1,30.22,North,0,2.7,2.7,68,0.00,,,0.00,VWS V14.00,2013-05-25 13:52:00,
2013-05-25 09:58:00,51.8,40.8,30.22,SSW,202,3.1,3.1,66,0.00,,,0.00,VWS V14.00,2013-05-25 13:58:00,
2013-05-25 10:03:00,52.2,40.8,30.22,SW,236,2.2,3.6,65,0.00,,,0.00,VWS V14.00,2013-05-25 14:03:00,
2013-05-25 10:09:00,52.7,40.9,30.22,WSW,245,2.2,2.2,64,0.00,,,0.00,VWS V14.00,2013-05-25 14:09:00,
2013-05-25 10:14:00,53.1,41.2,30.19,WNW,291,0.0,3.1,64,0.00,,,0.00,VWS V14.00,2013-05-25 14:14:00,
2013-05-25 10:20:00,53.2,41.0,30.19,SW,231,0.0,2.7,63,0.00,,,0.00,VWS V14.00,2013-05-25 14:20:00,
2013-05-25 10:25:00,53.6,40.9,30.19,SSW,213,4.9,4.9,62,0.00,,,0.00,VWS V14.00,2013-05-25 14:25:00,
2013-05-25 10:30:00,54.0,40.0,30.22,NE,39,3.1,5.4,59,0.00,,,0.00,VWS V14.00,2013-05-25 14:30:00,
2013-05-25 10:36:00,54.0,40.0,30.22,North,3,0.0,0.0,59,0.00,,,0.00,VWS V14.00,2013-05-25 14:36:00,
2013-05-25 10:41:00,54.3,39.9,30.22,ENE,57,3.6,3.6,58,0.00,,,0.00,VWS V14.00,2013-05-25 14:41:00,
2013-05-25 10:47:00,54.7,39.8,30.22,North,357,4.0,5.4,57,0.00,,,0.00,VWS V14.00,2013-05-25 14:47:00,
2013-05-25 10:52:00,54.9,39.0,30.22,South,174,2.2,2.2,55,0.00,,,0.00,VWS V14.00,2013-05-25 14:52:00,
2013-05-25 10:57:00,55.0,39.2,30.19,NNE,19,2.7,3.1,55,0.00,,,0.00,VWS V14.00,2013-05-25 14:57:00,
2013-05-25 11:02:00,55.2,38.9,30.19,SW,231,0.0,0.0,54,0.00,,,0.00,VWS V14.00,2013-05-25 15:02:00,
2013-05-25 11:07:00,55.8,39.8,30.19,WSW,251,0.0,0.0,55,0.00,,,0.00,VWS V14.00,2013-05-25 15:07:00,
2013-05-25 11:12:00,55.9,39.1,30.19,SSE,150,2.2,2.7,53,0.00,,,0.00,VWS V14.00,2013-05-25 15:12:00,
2013-05-25 11:17:00,56.1,38.8,30.22,North,2,2.7,3.6,52,0.00,,,0.00,VWS V14.00,2013-05-25 15:17:00,
2013-05-25 11:23:00,56.1,37.2,30.22,NW,311,0.0,2.2,49,0.00,,,0.00,VWS V14.00,2013-05-25 15:23:00,
2013-05-25 11:29:00,56.3,38.4,30.22,WSW,250,3.1,3.1,51,0.00,,,0.00,VWS V14.00,2013-05-25 15:29:00,
2013-05-25 11:34:00,56.7,38.2,30.22,ENE,57,3.6,5.4,50,0.00,,,0.00,VWS V14.00,2013-05-25 15:34:00,
2013-05-25 11:40:00,56.8,37.4,30.22,South,179,3.6,3.6,48,0.00,,,0.00,VWS V14.00,2013-05-25 15:40:00,
2013-05-25 11:45:00,57.0,37.5,30.22,SSW,205,3.1,3.1,48,0.00,,,0.00,VWS V14.00,2013-05-25 15:45:00,
2013-05-25 11:50:00,57.6,38.0,30.22,West,260,2.7,3.1,48,0.00,,,0.00,VWS V14.00,2013-05-25 15:50:00,
2013-05-25 11:55:00,58.1,37.5,30.22,NNE,17,0.0,0.0,46,0.00,,,0.00,VWS V14.00,2013-05-25 15:55:00,
2013-05-25 12:01:00,58.8,38.1,30.22,SW,230,0.0,0.0,46,0.00,,,0.00,VWS V14.00,2013-05-25 16:01:00,
2013-05-25 12:06:00,59.2,38.4,30.22,SW,227,2.7,2.7,46,0.00,,,0.00,VWS V14.00,2013-05-25 16:06:00,
2013-05-25 12:11:00,59.4,38.0,30.22,SW,222,0.0,3.1,45,0.00,,,0.00,VWS V14.00,2013-05-25 16:11:00,
2013-05-25 12:16:00,59.9,39.1,30.22,NNW,348,2.2,3.1,46,0.00,,,0.00,VWS V14.00,2013-05-25 16:16:00,
2013-05-25 12:22:00,60.4,39.0,30.22,NW,317,2.2,3.1,45,0.00,,,0.00,VWS V14.00,2013-05-25 16:22:00,
2013-05-25 12:27:00,61.2,38.5,30.22,WSW,239,3.1,3.1,43,0.00,,,0.00,VWS V14.00,2013-05-25 16:27:00,
2013-05-25 12:33:00,61.3,37.5,30.19,North,7,4.0,4.0,41,0.00,,,0.00,VWS V14.00,2013-05-25 16:33:00,
2013-05-25 12:39:00,61.7,38.4,30.19,NNE,21,3.6,3.6,42,0.00,,,0.00,VWS V14.00,2013-05-25 16:39:00,
2013-05-25 12:44:00,62.2,37.0,30.19,NNE,16,4.0,5.8,39,0.00,,,0.00,VWS V14.00,2013-05-25 16:44:00,
2013-05-25 12:50:00,62.6,37.3,30.19,ENE,66,2.7,2.7,39,0.00,,,0.00,VWS V14.00,2013-05-25 16:50:00,
2013-05-25 12:56:00,63.0,36.3,30.19,East,80,0.0,0.0,37,0.00,,,0.00,VWS V14.00,2013-05-25 16:56:00,
2013-05-25 13:01:00,63.5,36.8,30.19,SSW,203,2.7,3.1,37,0.00,,,0.00,VWS V14.00,2013-05-25 17:01:00,
2013-05-25 13:07:00,64.2,38.8,30.19,WSW,251,0.0,3.1,39,0.00,,,0.00,VWS V14.00,2013-05-25 17:07:00,
2013-05-25 13:12:00,64.8,39.9,30.19,South,170,0.0,2.2,40,0.00,,,0.00,VWS V14.00,2013-05-25 17:12:00,
2013-05-25 13:17:00,65.3,39.1,30.19,WNW,296,2.7,2.7,38,0.00,,,0.00,VWS V14.00,2013-05-25 17:17:00,
2013-05-25 13:22:00,65.7,39.4,30.19,NW,307,3.1,3.1,38,0.00,,,0.00,VWS V14.00,2013-05-25 17:22:00,
2013-05-25 13:28:00,66.2,39.9,30.19,SSW,205,2.7,2.7,38,0.00,,,0.00,VWS V14.00,2013-05-25 17:28:00,
2013-05-25 13:33:00,66.4,38.6,30.19,SSE,164,0.0,0.0,36,0.00,,,0.00,VWS V14.00,2013-05-25 17:33:00,
2013-05-25 13:38:00,66.6,37.3,30.19,SSW,204,5.8,5.8,34,0.00,,,0.00,VWS V14.00,2013-05-25 17:38:00,
2013-05-25 13:43:00,66.6,37.3,30.19,North,8,3.1,3.6,34,0.00,,,0.00,VWS V14.00,2013-05-25 17:43:00,
2013-05-25 13:49:00,67.1,38.6,30.19,South,181,0.0,2.7,35,0.00,,,0.00,VWS V14.00,2013-05-25 17:49:00,
2013-05-25 13:54:00,67.1,38.6,30.19,ESE,109,3.6,3.6,35,0.00,,,0.00,VWS V14.00,2013-05-25 17:54:00,
2013-05-25 14:00:00,67.1,37.1,30.19,NW,314,2.7,2.7,33,0.00,,,0.00,VWS V14.00,2013-05-25 18:00:00,
2013-05-25 14:06:00,67.1,37.1,30.19,NW,314,2.2,2.2,33,0.00,,,0.00,VWS V14.00,2013-05-25 18:06:00,
2013-05-25 14:12:00,67.5,38.9,30.19,North,353,3.6,3.6,35,0.00,,,0.00,VWS V14.00,2013-05-25 18:12:00,
2013-05-25 14:17:00,67.5,38.1,30.19,SSW,203,3.6,3.6,34,0.00,,,0.00,VWS V14.00,2013-05-25 18:17:00,
2013-05-25 14:22:00,67.5,37.4,30.19,NNE,23,4.0,4.0,33,0.00,,,0.00,VWS V14.00,2013-05-25 18:22:00,
2013-05-25 14:28:00,67.5,37.4,30.19,NE,47,0.0,4.0,33,0.00,,,0.00,VWS V14.00,2013-05-25 18:28:00,
2013-05-25 14:33:00,67.5,36.6,30.19,NNE,19,2.2,2.2,32,0.00,,,0.00,VWS V14.00,2013-05-25 18:33:00,
2013-05-25 14:39:00,67.6,36.8,30.19,NNE,21,0.0,0.0,32,0.00,,,0.00,VWS V14.00,2013-05-25 18:39:00,
2013-05-25 14:45:00,68.4,38.2,30.16,NNW,331,2.2,2.2,33,0.00,,,0.00,VWS V14.00,2013-05-25 18:45:00,
2013-05-25 14:50:00,68.4,37.4,30.16,NNE,16,0.0,0.0,32,0.00,,,0.00,VWS V14.00,2013-05-25 18:50:00,
2013-05-25 14:55:00,68.9,38.6,30.16,NNE,21,3.1,3.1,33,0.00,,,0.00,VWS V14.00,2013-05-25 18:55:00,
2013-05-25 15:00:00,69.4,38.3,30.16,East,98,0.0,0.0,32,0.00,,,0.00,VWS V14.00,2013-05-25 19:00:00,
2013-05-25 15:06:00,69.3,35.7,30.16,SSW,202,0.0,3.6,29,0.00,,,0.00,VWS V14.00,2013-05-25 19:06:00,
2013-05-25 15:11:00,69.3,36.5,30.16,NW,305,3.1,3.1,30,0.00,,,0.00,VWS V14.00,2013-05-25 19:11:00,
2013-05-25 15:16:00,69.4,39.1,30.16,West,274,0.0,2.7,33,0.00,,,0.00,VWS V14.00,2013-05-25 19:16:00,
2013-05-25 15:21:00,70.3,39.1,30.16,SSW,206,4.0,4.0,32,0.00,,,0.00,VWS V14.00,2013-05-25 19:21:00,
2013-05-25 15:27:00,70.3,35.7,30.16,SW,215,5.4,5.4,28,0.00,,,0.00,VWS V14.00,2013-05-25 19:27:00,
2013-05-25 15:32:00,70.5,36.8,30.16,SSW,203,2.7,5.4,29,0.00,,,0.00,VWS V14.00,2013-05-25 19:32:00,
2013-05-25 15:37:00,70.7,36.9,30.16,SSW,210,3.6,3.6,29,0.00,,,0.00,VWS V14.00,2013-05-25 19:37:00,
2013-05-25 15:42:00,70.7,36.9,30.16,NNW,346,3.1,3.1,29,0.00,,,0.00,VWS V14.00,2013-05-25 19:42:00,
2013-05-25 15:48:00,70.7,36.0,30.16,SSW,195,3.1,3.1,28,0.00,,,0.00,VWS V14.00,2013-05-25 19:48:00,
2013-05-25 15:53:00,70.7,38.6,30.16,South,187,2.2,2.7,31,0.00,,,0.00,VWS V14.00,2013-05-25 19:53:00,
2013-05-25 15:59:00,70.7,38.6,30.16,SSW,193,0.0,2.2,31,0.00,,,0.00,VWS V14.00,2013-05-25 19:59:00,
2013-05-25 16:05:00,70.0,34.5,30.16,NNE,21,3.6,3.6,27,0.00,,,0.00,VWS V14.00,2013-05-25 20:05:00,
2013-05-25 16:10:00,69.8,34.3,30.16,North,357,4.0,4.0,27,0.00,,,0.00,VWS V14.00,2013-05-25 20:10:00,
2013-05-25 16:16:00,69.6,34.2,30.16,ESE,119,0.0,0.0,27,0.00,,,0.00,VWS V14.00,2013-05-25 20:16:00,
2013-05-25 16:21:00,69.6,35.1,30.16,West,263,0.0,0.0,28,0.00,,,0.00,VWS V14.00,2013-05-25 20:21:00,
2013-05-25 16:27:00,69.8,34.3,30.13,North,3,3.6,3.6,27,0.00,,,0.00,VWS V14.00,2013-05-25 20:27:00,
2013-05-25 16:33:00,70.3,34.8,30.13,North,357,4.0,5.8,27,0.00,,,0.00,VWS V14.00,2013-05-25 20:33:00,
2013-05-25 16:38:00,70.3,34.8,30.13,NNE,12,4.0,4.0,27,0.00,,,0.00,VWS V14.00,2013-05-25 20:38:00,
2013-05-25 16:43:00,70.9,35.3,30.13,NNE,30,0.0,0.0,27,0.00,,,0.00,VWS V14.00,2013-05-25 20:43:00,
2013-05-25 16:48:00,71.1,35.4,30.13,NW,307,0.0,2.2,27,0.00,,,0.00,VWS V14.00,2013-05-25 20:48:00,
2013-05-25 16:53:00,70.9,35.3,30.13,ENE,60,2.2,3.1,27,0.00,,,0.00,VWS V14.00,2013-05-25 20:53:00,
2013-05-25 16:59:00,70.7,34.2,30.13,NNW,332,0.0,0.0,26,0.00,,,0.00,VWS V14.00,2013-05-25 20:59:00,
2013-05-25 17:05:00,71.1,33.5,30.13,NE,39,0.0,0.0,25,0.00,,,0.00,VWS V14.00,2013-05-25 21:05:00,
2013-05-25 17:10:00,71.4,33.8,30.13,NE,55,0.0,0.0,25,0.00,,,0.00,VWS V14.00,2013-05-25 21:10:00,
2013-05-25 17:15:00,71.2,33.6,30.13,SE,133,2.2,2.2,25,0.00,,,0.00,VWS V14.00,2013-05-25 21:15:00,
2013-05-25 17:20:00,71.1,34.5,30.13,NNW,329,5.8,5.8,26,0.00,,,0.00,VWS V14.00,2013-05-25 21:20:00,
2013-05-25 17:26:00,71.2,34.6,30.13,WSW,253,0.0,2.7,26,0.00,,,0.00,VWS V14.00,2013-05-25 21:26:00,
2013-05-25 17:31:00,71.6,34.0,30.13,ENE,58,2.2,2.2,25,0.00,,,0.00,VWS V14.00,2013-05-25 21:31:00,
2013-05-25 17:37:00,72.0,33.2,30.13,NNE,26,2.2,3.1,24,0.00,,,0.00,VWS V14.00,2013-05-25 21:37:00,
2013-05-25 17:43:00,72.3,33.5,30.13,North,10,2.7,3.1,24,0.00,,,0.00,VWS V14.00,2013-05-25 21:43:00,
2013-05-25 17:48:00,72.5,33.7,30.13,SW,235,2.7,3.1,24,0.00,,,0.00,VWS V14.00,2013-05-25 21:48:00,
2013-05-25 17:54:00,72.3,33.5,30.13,SE,132,0.0,0.0,24,0.00,,,0.00,VWS V14.00,2013-05-25 21:54:00,
2013-05-25 17:59:00,72.0,33.2,30.13,ESE,111,0.0,0.0,24,0.00,,,0.00,VWS V14.00,2013-05-25 21:59:00,
2013-05-25 18:05:00,71.8,32.0,30.13,ESE,118,0.0,0.0,23,0.00,,,0.00,VWS V14.00,2013-05-25 22:05:00,
2013-05-25 18:10:00,72.0,32.2,30.13,NE,55,3.1,3.1,23,0.00,,,0.00,VWS V14.00,2013-05-25 22:10:00,
2013-05-25 18:16:00,71.8,32.0,30.13,SW,223,2.7,3.1,23,0.00,,,0.00,VWS V14.00,2013-05-25 22:16:00,
2013-05-25 18:21:00,71.2,31.6,30.13,SW,216,0.0,0.0,23,0.00,,,0.00,VWS V14.00,2013-05-25 22:21:00,
2013-05-25 18:26:00,71.1,31.4,30.13,NE,52,4.0,4.0,23,0.00,,,0.00,VWS V14.00,2013-05-25 22:26:00,
2013-05-25 18:32:00,70.9,31.3,30.13,NE,50,3.6,4.0,23,0.00,,,0.00,VWS V14.00,2013-05-25 22:32:00,
2013-05-25 18:37:00,70.9,31.3,30.13,ENE,57,0.0,2.2,23,0.00,,,0.00,VWS V14.00,2013-05-25 22:37:00,
2013-05-25 18:42:00,70.9,31.3,30.13,ENE,60,0.0,0.0,23,0.00,,,0.00,VWS V14.00,2013-05-25 22:42:00,
2013-05-25 18:48:00,70.7,31.1,30.13,North,1,2.7,4.0,23,0.00,,,0.00,VWS V14.00,2013-05-25 22:48:00,
2013-05-25 18:54:00,70.5,31.0,30.13,NNE,13,5.8,5.8,23,0.00,,,0.00,VWS V14.00,2013-05-25 22:54:00,
2013-05-25 18:59:00,70.5,31.0,30.13,NE,38,0.0,2.7,23,0.00,,,0.00,VWS V14.00,2013-05-25 22:59:00,
2013-05-25 19:05:00,70.3,30.8,30.13,NNE,32,2.7,2.7,23,0.00,,,0.00,VWS V14.00,2013-05-25 23:05:00,
2013-05-25 19:11:00,70.2,30.7,30.13,NE,46,2.2,3.1,23,0.00,,,0.00,VWS V14.00,2013-05-25 23:11:00,
2013-05-25 19:16:00,70.0,30.5,30.13,NE,39,0.0,0.0,23,0.00,,,0.00,VWS V14.00,2013-05-25 23:16:00,
2013-05-25 19:22:00,69.6,30.2,30.13,NE,39,0.0,0.0,23,0.00,,,0.00,VWS V14.00,2013-05-25 23:22:00,
2013-05-25 19:28:00,69.4,31.1,30.13,NE,39,0.0,0.0,24,0.00,,,0.00,VWS V14.00,2013-05-25 23:28:00,
2013-05-25 19:33:00,69.3,31.0,30.13,NE,38,0.0,0.0,24,0.00,,,0.00,VWS V14.00,2013-05-25 23:33:00,
2013-05-25 19:39:00,68.9,31.7,30.13,NE,38,0.0,0.0,25,0.00,,,0.00,VWS V14.00,2013-05-25 23:39:00,
2013-05-25 19:44:00,68.7,30.5,30.13,NE,41,2.7,2.7,24,0.00,,,0.00,VWS V14.00,2013-05-25 23:44:00,
2013-05-25 19:50:00,68.2,31.0,30.13,ENE,76,0.0,0.0,25,0.00,,,0.00,VWS V14.00,2013-05-25 23:50:00,
2013-05-25 19:55:00,68.0,30.9,30.13,ENE,75,0.0,0.0,25,0.00,,,0.00,VWS V14.00,2013-05-25 23:55:00,
2013-05-25 20:01:00,67.5,31.4,30.13,ENE,76,0.0,0.0,26,0.00,,,0.00,VWS V14.00,2013-05-26 00:01:00,
2013-05-25 20:07:00,66.9,31.0,30.13,ENE,69,0.0,0.0,26,0.00,,,0.00,VWS V14.00,2013-05-26 00:07:00,
2013-05-25 20:12:00,66.7,32.6,30.13,ENE,69,0.0,0.0,28,0.00,,,0.00,VWS V14.00,2013-05-26 00:12:00,
2013-05-25 20:18:00,66.6,32.5,30.13,ENE,69,0.0,0.0,28,0.00,,,0.00,VWS V14.00,2013-05-26 00:18:00,
2013-05-25 20:23:00,66.4,33.2,30.13,ENE,69,0.0,0.0,29,0.00,,,0.00,VWS V14.00,2013-05-26 00:23:00,
2013-05-25 20:28:00,66.2,34.7,30.13,ENE,69,0.0,0.0,31,0.00,,,0.00,VWS V14.00,2013-05-26 00:28:00,
2013-05-25 20:33:00,66.0,36.1,30.13,SW,222,4.0,4.0,33,0.00,,,0.00,VWS V14.00,2013-05-26 00:33:00,
2013-05-25 20:39:00,65.3,35.5,30.13,SW,236,2.2,2.2,33,0.00,,,0.00,VWS V14.00,2013-05-26 00:39:00,
2013-05-25 20:45:00,64.4,35.5,30.13,SW,234,0.0,2.7,34,0.00,,,0.00,VWS V14.00,2013-05-26 00:45:00,
2013-05-25 20:50:00,63.9,35.7,30.13,WSW,246,2.2,2.2,35,0.00,,,0.00,VWS V14.00,2013-05-26 00:50:00,
2013-05-25 20:56:00,63.0,35.6,30.13,West,272,4.0,4.0,36,0.00,,,0.00,VWS V14.00,2013-05-26 00:56:00,
2013-05-25 21:01:00,62.2,35.7,30.13,SW,217,0.0,0.0,37,0.00,,,0.00,VWS V14.00,2013-05-26 01:01:00,
2013-05-25 21:06:00,61.9,36.0,30.13,SW,216,0.0,0.0,38,0.00,,,0.00,VWS V14.00,2013-05-26 01:06:00,
2013-05-25 21:11:00,61.5,36.3,30.13,SW,216,0.0,0.0,39,0.00,,,0.00,VWS V14.00,2013-05-26 01:11:00,
2013-05-25 21:16:00,61.0,35.9,30.13,West,265,0.0,0.0,39,0.00,,,0.00,VWS V14.00,2013-05-26 01:16:00,
2013-05-25 21:22:00,60.4,36.0,30.13,WSW,249,3.1,3.1,40,0.00,,,0.00,VWS V14.00,2013-05-26 01:22:00,
2013-05-25 21:28:00,59.9,36.2,30.13,NW,313,0.0,2.2,41,0.00,,,0.00,VWS V14.00,2013-05-26 01:28:00,
2013-05-25 21:34:00,59.4,35.7,30.13,WNW,296,0.0,0.0,41,0.00,,,0.00,VWS V14.00,2013-05-26 01:34:00,
2013-05-25 21:39:00,59.0,35.3,30.13,WNW,295,0.0,0.0,41,0.00,,,0.00,VWS V14.00,2013-05-26 01:39:00,
2013-05-25 21:44:00,58.6,35.6,30.13,WNW,296,0.0,0.0,42,0.00,,,0.00,VWS V14.00,2013-05-26 01:44:00,
2013-05-25 21:49:00,58.5,36.1,30.13,WNW,295,0.0,0.0,43,0.00,,,0.00,VWS V14.00,2013-05-26 01:49:00,
2013-05-25 21:54:00,58.3,36.5,30.13,WNW,295,0.0,0.0,44,0.00,,,0.00,VWS V14.00,2013-05-26 01:54:00,
2013-05-25 22:00:00,58.3,36.5,30.13,WNW,296,0.0,0.0,44,0.00,,,0.00,VWS V14.00,2013-05-26 02:00:00,
2013-05-25 22:05:00,57.4,36.8,30.13,WNW,294,0.0,0.0,46,0.00,,,0.00,VWS V14.00,2013-05-26 02:05:00,
2013-05-25 22:10:00,57.2,36.6,30.13,WNW,296,0.0,0.0,46,0.00,,,0.00,VWS V14.00,2013-05-26 02:10:00,
2013-05-25 22:16:00,56.8,36.8,30.13,WNW,295,0.0,0.0,47,0.00,,,0.00,VWS V14.00,2013-05-26 02:16:00,
2013-05-25 22:21:00,56.3,37.4,30.13,WNW,294,0.0,0.0,49,0.00,,,0.00,VWS V14.00,2013-05-26 02:21:00,
2013-05-25 22:27:00,55.9,37.6,30.13,WNW,294,0.0,0.0,50,0.00,,,0.00,VWS V14.00,2013-05-26 02:27:00,
2013-05-25 22:32:00,55.6,37.2,30.13,WNW,294,0.0,0.0,50,0.00,,,0.00,VWS V14.00,2013-05-26 02:32:00,
2013-05-25 22:38:00,55.0,37.3,30.13,WNW,296,0.0,0.0,51,0.00,,,0.00,VWS V14.00,2013-05-26 02:38:00,
2013-05-25 22:44:00,54.5,37.2,30.13,WNW,294,0.0,0.0,52,0.00,,,0.00,VWS V14.00,2013-05-26 02:44:00,
2013-05-25 22:49:00,54.1,37.9,30.13,WNW,296,0.0,0.0,54,0.00,,,0.00,VWS V14.00,2013-05-26 02:49:00,
2013-05-25 22:55:00,53.8,37.5,30.13,WNW,296,0.0,0.0,54,0.00,,,0.00,VWS V14.00,2013-05-26 02:55:00,
2013-05-25 23:00:00,53.2,37.5,30.13,WNW,293,0.0,0.0,55,0.00,,,0.00,VWS V14.00,2013-05-26 03:00:00,
2013-05-25 23:06:00,52.9,37.6,30.13,WNW,294,0.0,0.0,56,0.00,,,0.00,VWS V14.00,2013-05-26 03:06:00,
2013-05-25 23:12:00,52.7,37.5,30.13,WNW,295,0.0,0.0,56,0.00,,,0.00,VWS V14.00,2013-05-26 03:12:00,
2013-05-25 23:17:00,52.2,37.8,30.13,WNW,295,0.0,0.0,58,0.00,,,0.00,VWS V14.00,2013-05-26 03:17:00,
2013-05-25 23:22:00,51.8,37.9,30.13,WNW,296,0.0,0.0,59,0.00,,,0.00,VWS V14.00,2013-05-26 03:22:00,
2013-05-25 23:28:00,51.6,38.2,30.13,WNW,295,0.0,0.0,60,0.00,,,0.00,VWS V14.00,2013-05-26 03:28:00,
2013-05-25 23:33:00,51.4,38.0,30.13,WNW,294,0.0,0.0,60,0.00,,,0.00,VWS V14.00,2013-05-26 03:33:00,
2013-05-25 23:38:00,51.1,38.1,30.13,WNW,295,0.0,0.0,61,0.00,,,0.00,VWS V14.00,2013-05-26 03:38:00,
2013-05-25 23:44:00,50.5,38.0,30.13,WNW,296,0.0,0.0,62,0.00,,,0.00,VWS V14.00,2013-05-26 03:44:00,
2013-05-25 23:49:00,50.4,38.3,30.13,WNW,293,0.0,0.0,63,0.00,,,0.00,VWS V14.00,2013-05-26 03:49:00,
2013-05-25 23:55:00,50.2,38.5,30.13,WNW,294,0.0,0.0,64,0.00,,,0.00,VWS V14.00,2013-05-26 03:55:00,